Find Starlink 35720

NORAD ID: 67052 Int'l Des: 2025-294 Owner: SPXS Country: US Constellation: starlink operational
LEOCIRCULAR

当前视图

正在加载3D地球...

About Starlink 35720

Starlink 35720 (NORAD 67052) is a starlink constellation satellite (v2 mini) launched Dec 11, 2025 by SPXS of US. It operates in LEO, CIRCULAR orbit with a mass of 575.00 kg.

关于 Starlink 35720

正在加载描述...

即将过境

Passes for default location (London). Set your location on the main map for personalized predictions.

高度历史

Loading altitude history...

两行轨道根数

1 67052U 25294Y 26193.99169066 .00011229 00000-0 41686-3 0 9992
2 67052 43.0046 50.3353 0001408 279.6324 80.4368 15.27588644 33964
Epoch: Jul 12, 2026 • Age: 24 hours

当前状态

高度 482.6 km
远地点 / 近地点 N/A
速度 7.63 km/s
星下点 4.34°N, 73.34°W
发射日期 Dec 11, 2025
运行时间 0.5 years
类型 internet

技术详情

分类 Payload
质量 575.00 kg
干质量 530.00 kg
总质量 575.00 kg
长度 0.30 m
直径 4.10 m
跨度 29.00 m
形状 Box + pan
制造商 SPXS
平台类型 Starlink V2MO
阶段状态 In Orbit
所有者/国家 SPXS/US

Most Searched